Vorticity
12 13 14 14 12 11 10 11 12 13 14 14 14 15 14 13 12 11 11 11 10 10 9 11 12 12 13 13 12 9 6 5 6 8 11 16 18 22 24 25 21 18 15 12 8 5 2 -1 -8 -14 -14 -3 13 22 24 19 10 10 15 20 18 18 19 19 18 16 15 13 10
12 13 14 15 13 12 11 11 12 13 13 14 14 14 14 13 13 12 11 11 11 9 8 9 12 14 16 17 15 11 7 6 5 5 5 9 14 19 22 23 20 18 17 15 14 15 17 18 10 -2 -12 -15 -2 8 15 21 17 15 18 23 26 28 28 27 24 22 19 16 14
12 13 14 15 14 13 11 10 11 12 13 14 14 14 14 14 13 13 12 12 11 10 9 9 11 14 16 15 12 8 6 6 5 4 3 4 10 16 21 23 20 17 15 12 9 11 17 28 27 18 6 -4 -2 1 5 13 15 12 10 13 22 28 30 29 26 25 24 21 17
13 14 14 15 14 13 11 10 11 12 13 13 14 14 14 14 13 13 12 11 11 11 11 10 10 11 12 11 8 6 5 5 6 6 5 4 6 10 16 22 23 20 14 8 1 0 6 18 23 23 19 14 9 6 5 6 4 -3 -9 -9 3 12 16 19 13 15 19 23 19
13 14 14 14 14 13 12 11 11 11 12 13 13 13 13 13 13 13 13 12 12 12 12 11 10 9 9 9 7 6 5 4 6 7 7 6 5 6 9 14 20 22 19 12 4 1 2 7 10 12 13 14 14 13 11 7 -2 -12 -18 -17 -4 6 11 13 4 2 5 14 18
12 13 13 14 14 14 13 12 11 12 12 12 13 13 13 13 13 13 13 12 12 12 12 13 12 10 9 8 8 7 6 4 5 5 5 5 5 5 6 8 13 17 19 17 12 8 6 5 5 6 6 6 9 12 12 9 1 -6 -10 -10 -3 5 12 16 8 2 0 6 15
9 10 11 13 13 14 13 13 12 12 12 12 12 13 13 13 12 12 12 13 12 12 12 13 13 12 11 10 9 8 7 6 5 5 4 4 3 4 4 4 7 11 14 16 12 8 4 2 4 7 8 7 8 10 12 12 8 5 3 5 8 10 12 15 12 8 5 3 11
6 7 8 11 12 13 13 13 13 13 12 12 12 13 13 13 13 13 13 13 13 12 13 13 14 14 14 12 10 9 8 7 7 6 6 5 4 3 2 1 3 6 10 14 12 8 3 -1 2 6 10 10 10 11 13 15 13 12 13 15 16 17 17 17 17 12 7 4 7
7 6 6 8 10 12 13 13 13 13 13 12 12 12 12 12 13 13 13 12 12 13 13 13 14 15 15 15 13 11 10 8 8 8 8 8 7 6 4 2 2 4 7 11 13 12 9 4 3 4 4 3 4 7 10 13 13 14 15 17 17 17 19 22 22 19 14 7 6
8 7 6 6 8 11 13 14 14 13 13 13 13 12 12 12 12 12 12 12 13 13 13 13 14 14 15 16 15 14 12 10 9 9 9 10 10 10 8 6 4 4 5 8 12 13 13 11 9 5 1 -5 -5 -1 5 9 9 9 12 17 17 15 13 15 21 22 20 15 10
8 8 7 6 7 9 11 13 14 14 14 13 13 13 12 12 11 11 12 13 13 13 13 13 13 14 14 16 16 16 14 12 11 9 9 9 10 11 12 11 9 7 5 6 8 11 14 14 14 12 7 -0 -5 -5 -2 3 4 4 6 12 16 16 13 10 14 18 21 20 18
7 8 7 6 6 8 10 12 14 14 14 14 14 13 13 12 12 12 12 12 12 13 13 13 13 13 14 14 16 16 16 15 13 11 10 9 9 10 12 12 12 11 9 7 7 9 11 13 15 16 14 10 3 -3 -5 -3 1 3 4 4 9 12 13 13 14 17 20 24 25
5 7 7 7 6 6 8 11 13 14 14 14 14 14 14 13 13 13 13 13 13 13 13 13 13 13 13 13 14 15 16 16 14 13 11 9 9 9 9 10 11 11 11 10 9 9 9 11 15 17 17 15 11 6 0 -7 -1 4 6 3 3 5 9 13 16 19 22 25 28
5 6 7 7 6 6 7 9 12 13 14 15 15 15 15 14 14 13 13 13 13 13 14 14 14 13 13 13 13 14 15 15 15 14 13 11 10 9 9 9 9 9 8 8 9 9 9 10 13 16 16 14 13 14 12 3 -0 4 8 4 0 1 4 9 12 13 12 12 18
8 7 7 7 6 5 6 8 10 12 14 14 15 15 14 14 13 13 13 13 13 14 14 14 14 14 14 14 13 13 14 14 14 14 14 12 11 10 9 9 9 8 6 5 6 8 9 10 13 15 15 12 9 13 17 16 8 8 8 3 -2 -1 2 6 8 6 -0 -9 -3
11 10 9 9 7 6 6 7 9 11 13 14 14 14 13 13 13 13 13 14 14 15 15 15 15 15 15 14 14 14 14 14 14 14 14 13 12 11 10 10 10 9 7 5 5 6 8 10 12 14 15 13 7 8 12 18 13 11 8 2 -2 0 4 6 6 6 2 -10 -9
13 11 10 9 8 7 6 6 8 10 12 13 13 13 12 12 12 13 14 15 16 17 17 17 17 16 16 15 15 14 14 14 14 14 14 13 13 12 11 11 10 10 9 8 6 5 6 8 11 13 14 14 9 8 11 16 15 12 7 1 0 3 7 9 7 8 7 -1 -2
13 11 9 9 8 8 7 7 8 9 11 12 13 13 12 12 13 13 14 16 17 18 19 19 19 18 17 16 16 15 15 14 14 14 14 14 13 12 12 11 11 10 10 10 8 6 5 5 8 11 13 14 12 10 10 14 16 14 10 3 2 5 8 11 10 10 9 3 3
12 10 9 8 8 8 8 8 8 9 11 12 12 13 13 12 13 13 14 16 18 19 20 21 20 20 19 17 17 16 16 15 15 14 14 14 13 13 12 11 11 11 10 10 9 8 6 4 6 9 12 14 13 11 9 9 12 14 12 7 4 5 7 10 11 11 9 6 5
11 9 8 7 7 7 8 8 8 9 10 12 12 12 12 12 12 13 15 17 19 20 21 22 22 21 20 19 18 17 17 16 16 15 14 14 13 12 12 11 11 11 10 10 10 9 7 5 5 7 10 13 14 13 10 6 6 8 9 9 7 7 7 8 10 11 10 9 7
9 8 7 6 6 7 7 8 8 9 10 11 12 12 12 12 12 13 15 18 20 21 22 23 23 22 21 20 19 19 18 18 17 16 15 14 13 12 11 11 11 11 10 10 10 10 9 7 6 6 7 9 11 13 12 9 6 5 7 9 9 8 8 7 8 10 11 10 9
7 7 7 7 6 6 7 8 8 9 10 11 12 12 12 11 12 13 16 19 20 22 23 23 23 23 22 21 20 20 20 20 19 18 16 14 12 11 11 11 10 10 10 10 11 10 10 9 7 6 6 6 8 10 12 12 10 9 9 9 9 9 8 8 8 9 10 11 11
7 7 7 7 7 7 7 8 8 9 9 11 11 11 11 11 12 14 17 19 21 22 23 23 23 23 22 22 21 20 20 21 21 20 18 15 12 11 10 10 10 10 10 10 11 11 11 10 8 7 5 5 5 7 9 11 12 12 11 11 10 9 9 9 10 10 10 11 11
9 8 8 8 8 9 9 9 9 9 9 10 11 11 11 10 12 14 17 20 22 23 23 22 22 22 22 22 22 22 21 22 22 21 19 16 13 11 10 10 9 9 10 10 11 11 11 11 10 8 6 5 5 6 7 8 10 11 12 11 11 10 10 10 10 11 11 11 12
12 10 10 10 11 11 10 10 9 9 9 10 11 11 10 10 12 14 17 20 22 23 22 21 21 21 21 22 22 22 23 23 22 21 19 17 14 12 10 9 9 9 10 11 11 12 12 12 12 11 10 9 7 7 7 7 9 10 11 11 11 11 11 10 11 11 11 11 11
16 14 13 13 13 12 11 10 9 9 9 10 10 10 10 10 11 14 17 20 22 22 22 20 20 20 21 22 22 23 23 23 23 22 20 17 14 12 10 8 8 8 9 11 11 11 11 11 12 13 14 13 11 9 8 7 8 9 10 11 11 11 11 11 10 10 11 11 11
19 18 16 15 14 13 11 10 9 9 10 10 10 10 9 10 11 14 17 20 22 22 21 20 20 20 21 22 23 23 23 23 23 22 21 18 14 11 9 8 8 8 9 10 11 11 10 9 10 11 12 13 12 10 9 8 8 8 9 9 10 10 10 10 10 10 10 10 10
21 19 17 15 13 12 10 9 9 9 10 10 10 10 9 9 11 14 17 21 22 21 20 19 18 20 21 23 24 24 24 23 23 22 21 19 15 11 9 7 8 8 9 10 11 11 11 10 6 5 6 9 11 11 10 9 9 9 9 8 8 8 9 10 10 10 10 11 11
21 20 17 14 11 10 9 8 9 9 10 10 10 10 9 9 10 13 17 21 22 21 19 17 17 19 21 23 24 25 24 24 23 22 21 18 15 11 9 8 9 10 10 10 10 11 12 12 9 6 5 6 9 10 11 10 10 9 9 8 8 8 9 10 11 12 12 13 12
22 20 16 11 9 9 8 8 9 10 10 10 10 9 9 8 10 13 17 21 22 19 16 15 16 18 20 22 25 26 25 24 23 22 21 18 14 11 9 8 8 9 9 10 10 10 12 13 12 11 9 8 9 10 11 11 11 10 10 10 11 11 12 12 13 13 14 14 13
23 20 15 10 8 8 8 9 9 10 10 11 10 9 8 8 9 13 17 21 20 18 16 15 15 15 18 21 25 26 26 25 24 22 21 18 15 11 9 8 7 7 7 8 9 10 11 12 14 14 13 10 12 14 15 14 12 12 13 14 14 13 12 12 12 13 14 14 15
23 20 15 9 7 7 7 8 9 10 11 11 10 9 8 7 9 12 16 19 20 18 16 14 13 14 16 20 24 26 27 26 25 23 21 19 15 12 9 7 6 5 5 7 10 12 14 14 15 16 14 10 9 10 11 11 12 13 13 13 11 10 10 10 12 13 14 14 13
24 20 15 10 7 6 7 8 9 10 11 11 10 9 8 8 9 12 15 18 19 18 15 13 12 13 16 20 24 27 28 28 25 23 21 19 16 12 8 6 4 3 3 4 8 13 17 18 17 16 14 9 5 3 4 7 10 12 11 10 8 8 10 14 16 16 15 13 13
24 21 16 11 7 6 6 8 9 11 11 11 10 9 8 8 9 12 15 18 18 17 15 13 13 14 16 19 24 27 29 28 26 24 21 19 15 12 8 5 4 3 3 3 5 7 9 11 12 12 11 10 6 3 4 7 10 11 9 5 5 7 11 17 21 21 19 15 14
24 21 17 12 8 6 6 7 9 11 12 11 10 9 8 8 9 11 14 17 18 17 16 14 13 14 16 19 23 27 29 28 26 24 21 19 16 13 10 7 5 5 4 5 3 2 1 1 3 6 8 9 8 8 8 9 10 9 6 2 3 4 6 8 15 18 16 12 11
24 22 18 13 9 7 6 7 10 11 12 11 10 9 8 8 9 11 14 17 17 17 16 14 13 14 15 17 21 25 28 29 26 24 22 19 16 15 13 10 8 7 7 7 4 1 -2 -2 -0 2 5 7 9 10 11 11 11 8 4 2 3 3 1 -3 -2 -1 1 1 -1
24 22 18 13 10 7 7 7 10 11 12 11 10 9 8 8 9 11 13 16 17 17 16 14 13 13 14 17 20 24 26 27 26 24 23 20 16 15 14 12 10 9 9 8 6 3 1 -0 0 2 4 6 8 10 11 11 11 9 6 5 5 5 3 -2 -8 -10 -10 -8 -10
24 22 19 14 10 8 7 8 10 12 12 11 10 9 8 8 9 10 13 16 17 17 16 14 13 12 14 16 19 21 23 23 23 22 22 19 15 13 12 12 10 10 10 10 9 7 5 4 3 4 4 6 7 9 9 9 9 8 8 8 8 7 6 4 -1 -4 -7 -7 -8
23 23 20 15 11 8 7 8 11 12 12 11 10 9 9 9 9 10 13 15 17 17 16 13 12 11 12 14 17 19 20 21 19 17 16 14 11 11 11 12 10 11 12 11 10 10 9 8 7 6 6 7 8 8 8 8 7 7 8 9 8 8 7 6 5 3 1 -1 -1
22 23 21 16 11 8 7 7 10 12 13 12 11 10 9 9 9 10 12 15 17 17 16 13 11 10 11 13 15 17 19 20 18 14 10 7 7 9 11 12 9 9 10 11 10 10 10 9 8 8 8 8 9 9 9 8 8 9 10 11 10 9 8 7 7 6 5 4 4
21 23 21 17 12 9 7 7 9 11 13 13 12 11 10 10 9 10 11 14 16 17 17 15 12 10 10 12 14 16 17 19 17 14 9 5 5 8 11 14 11 9 8 10 9 9 9 8 8 8 9 10 10 10 10 10 12 13 15 16 15 14 12 10 9 8 7 6 7
Height
2990 2990 2989 2989 2989 2989 2988 2988 2987 2987 2986 2986 2986 2986 2986 2986 2986 2986 2987 2988 2988 2989 2990 2990 2991 2992 2993 2994 2994 2994 2995 2996 2997 2998 2999 3000 3001 3001 3002 3003 3004 3006 3007 3009 3010 3010 3010 3011 3011 3012 3012 3011 3012 3013 3015 3016 3018 3018 3019 3020 3020 3021 3023 3024 3025 3026 3027 3028 3029
2988 2988 2988 2987 2987 2987 2987 2986 2986 2985 2985 2985 2984 2984 2984 2984 2984 2985 2985 2985 2986 2987 2987 2988 2989 2990 2990 2991 2991 2991 2992 2993 2994 2995 2997 2998 2999 2999 3000 3001 3002 3004 3005 3007 3008 3009 3009 3009 3010 3011 3011 3011 3011 3011 3012 3013 3015 3016 3017 3018 3019 3020 3020 3021 3022 3023 3024 3025 3027
2987 2986 2986 2985 2985 2985 2985 2985 2984 2984 2983 2983 2983 2982 2982 2982 2982 2983 2983 2983 2984 2985 2985 2986 2987 2987 2988 2988 2989 2989 2990 2990 2991 2993 2994 2995 2997 2997 2998 2999 3000 3002 3003 3005 3005 3006 3006 3007 3008 3009 3010 3010 3010 3010 3010 3011 3013 3014 3015 3016 3017 3017 3018 3020 3020 3021 3022 3023 3024
2985 2985 2984 2984 2984 2983 2983 2983 2983 2982 2982 2981 2981 2981 2980 2980 2980 2981 2981 2981 2982 2982 2983 2984 2985 2986 2986 2986 2987 2987 2987 2988 2988 2990 2991 2993 2994 2995 2996 2997 2998 3000 3001 3002 3003 3004 3004 3004 3005 3006 3007 3008 3008 3008 3009 3010 3011 3012 3013 3014 3015 3015 3016 3017 3018 3019 3020 3020 3021
2984 2983 2983 2982 2982 2982 2982 2981 2981 2981 2980 2980 2980 2979 2979 2979 2979 2979 2979 2979 2979 2980 2981 2982 2983 2984 2984 2985 2985 2985 2985 2985 2986 2987 2988 2990 2991 2992 2994 2995 2996 2997 2998 2999 3000 3001 3001 3002 3003 3004 3005 3005 3006 3006 3007 3008 3009 3010 3010 3011 3012 3013 3013 3014 3015 3016 3017 3018 3018
2982 2982 2981 2981 2980 2980 2980 2980 2980 2979 2979 2978 2978 2977 2977 2977 2977 2977 2977 2977 2977 2978 2978 2979 2980 2981 2982 2982 2983 2983 2984 2984 2985 2986 2987 2988 2989 2990 2991 2992 2994 2995 2996 2997 2998 2999 3000 3000 3001 3001 3002 3003 3004 3005 3005 3006 3007 3008 3008 3009 3010 3010 3011 3011 3012 3013 3015 3016 3016
2981 2980 2980 2979 2979 2979 2978 2978 2978 2978 2977 2977 2976 2976 2975 2975 2975 2975 2975 2975 2976 2976 2976 2977 2977 2978 2979 2980 2981 2981 2982 2982 2983 2984 2985 2986 2987 2988 2989 2990 2991 2992 2994 2995 2995 2996 2997 2998 2999 3000 3000 3001 3002 3003 3004 3005 3005 3006 3006 3007 3007 3008 3009 3010 3010 3011 3012 3013 3014
2980 2979 2979 2978 2977 2977 2977 2976 2976 2976 2975 2975 2975 2974 2974 2974 2974 2974 2974 2974 2974 2974 2974 2975 2975 2976 2977 2978 2979 2979 2980 2981 2981 2982 2984 2985 2985 2986 2987 2988 2989 2990 2992 2993 2993 2994 2995 2996 2997 2998 2998 2999 3000 3001 3002 3003 3003 3004 3005 3005 3005 3006 3007 3008 3008 3010 3010 3011 3012
2978 2978 2977 2976 2976 2975 2975 2975 2974 2974 2973 2973 2973 2972 2972 2972 2972 2972 2972 2972 2972 2972 2972 2973 2973 2974 2975 2975 2976 2977 2978 2979 2980 2980 2981 2982 2983 2985 2985 2987 2988 2989 2990 2991 2991 2992 2993 2994 2995 2995 2996 2997 2998 2999 3000 3001 3001 3002 3002 3003 3004 3005 3005 3005 3006 3007 3009 3010 3011
2976 2976 2975 2975 2975 2974 2973 2973 2972 2972 2971 2971 2971 2970 2970 2970 2970 2970 2970 2970 2970 2970 2970 2970 2971 2971 2972 2973 2974 2975 2976 2977 2978 2979 2979 2980 2981 2982 2983 2984 2985 2987 2988 2989 2990 2990 2991 2992 2993 2993 2994 2995 2995 2996 2997 2999 2999 3000 3000 3001 3002 3003 3003 3004 3004 3005 3006 3008 3009
2975 2974 2974 2973 2973 2972 2972 2971 2970 2970 2970 2969 2969 2969 2968 2968 2968 2968 2968 2968 2968 2968 2968 2968 2968 2969 2969 2970 2971 2972 2973 2975 2975 2976 2977 2978 2979 2980 2980 2982 2983 2984 2985 2986 2987 2988 2989 2990 2990 2991 2992 2993 2993 2994 2995 2996 2997 2997 2998 2999 3000 3001 3002 3002 3003 3003 3005 3006 3007
2973 2972 2972 2972 2971 2970 2970 2969 2969 2968 2968 2967 2967 2966 2966 2966 2966 2966 2966 2966 2966 2966 2965 2966 2966 2966 2967 2967 2968 2970 2970 2972 2973 2974 2975 2975 2976 2977 2978 2979 2980 2981 2983 2984 2985 2986 2987 2988 2988 2989 2990 2990 2991 2992 2993 2994 2994 2995 2995 2996 2998 2999 3000 3000 3001 3002 3003 3004 3005
2971 2971 2970 2970 2969 2969 2968 2967 2967 2966 2965 2965 2965 2965 2964 2964 2964 2964 2964 2964 2964 2963 2963 2963 2963 2964 2964 2965 2965 2967 2968 2969 2970 2971 2972 2973 2974 2975 2976 2977 2978 2979 2980 2981 2982 2984 2985 2985 2986 2987 2987 2988 2989 2990 2991 2992 2992 2993 2993 2994 2995 2996 2998 2999 3000 3001 3001 3002 3003
2970 2969 2968 2968 2967 2967 2966 2965 2965 2964 2964 2963 2963 2962 2962 2962 2962 2962 2961 2961 2961 2961 2961 2961 2961 2961 2962 2962 2963 2964 2965 2966 2967 2968 2969 2970 2972 2973 2974 2975 2976 2977 2977 2979 2980 2981 2983 2984 2985 2985 2985 2986 2987 2989 2990 2990 2990 2991 2991 2992 2993 2994 2995 2997 2998 2999 3000 3000 3000
2967 2967 2966 2966 2965 2965 2964 2964 2963 2962 2962 2961 2960 2960 2960 2960 2960 2959 2959 2959 2959 2959 2959 2959 2959 2959 2959 2960 2960 2961 2962 2963 2965 2965 2967 2968 2969 2970 2972 2973 2974 2975 2976 2976 2978 2979 2980 2982 2983 2983 2984 2985 2985 2986 2987 2988 2989 2990 2990 2990 2991 2992 2994 2995 2996 2997 2998 2998 2998
2965 2965 2965 2964 2964 2963 2962 2962 2961 2960 2960 2959 2959 2958 2958 2958 2957 2957 2957 2957 2957 2956 2956 2956 2956 2957 2957 2957 2958 2959 2960 2961 2962 2963 2964 2965 2967 2968 2969 2971 2972 2973 2974 2975 2975 2977 2978 2979 2980 2981 2982 2983 2984 2985 2985 2985 2986 2988 2989 2989 2990 2990 2991 2993 2994 2995 2996 2996 2996
2964 2963 2963 2962 2961 2961 2960 2960 2959 2959 2958 2957 2957 2956 2956 2955 2955 2955 2955 2954 2954 2954 2954 2954 2954 2954 2955 2955 2956 2957 2957 2958 2960 2961 2962 2963 2964 2965 2967 2968 2970 2971 2972 2973 2974 2974 2975 2976 2978 2979 2980 2981 2982 2983 2983 2984 2985 2986 2987 2987 2988 2988 2990 2991 2992 2993 2994 2995 2995
2962 2961 2961 2960 2960 2959 2958 2958 2957 2957 2956 2955 2955 2955 2954 2954 2953 2953 2952 2952 2952 2951 2951 2951 2951 2951 2952 2952 2953 2954 2955 2956 2957 2958 2960 2961 2962 2963 2965 2966 2967 2969 2970 2971 2972 2972 2973 2974 2975 2976 2978 2979 2980 2981 2981 2982 2983 2984 2985 2985 2986 2987 2988 2989 2990 2991 2992 2993 2993
2960 2959 2959 2958 2958 2957 2956 2956 2955 2955 2954 2954 2953 2952 2952 2951 2951 2950 2950 2950 2949 2949 2949 2949 2949 2949 2949 2950 2950 2951 2952 2954 2955 2956 2957 2959 2960 2961 2962 2964 2965 2966 2967 2968 2970 2970 2971 2972 2973 2974 2975 2977 2978 2979 2980 2980 2981 2982 2983 2984 2985 2985 2986 2987 2988 2990 2991 2991 2992
2958 2957 2957 2956 2956 2955 2955 2954 2954 2953 2952 2952 2951 2950 2950 2949 2949 2948 2948 2947 2947 2946 2946 2946 2946 2946 2946 2947 2948 2949 2950 2951 2952 2954 2955 2956 2957 2959 2960 2961 2962 2964 2965 2966 2967 2968 2969 2970 2971 2972 2973 2974 2976 2977 2978 2979 2980 2980 2981 2982 2983 2984 2985 2986 2987 2988 2989 2990 2991
2956 2955 2955 2954 2954 2953 2953 2952 2952 2951 2950 2950 2949 2948 2948 2947 2947 2946 2945 2945 2944 2944 2944 2944 2944 2944 2944 2945 2945 2946 2947 2949 2950 2951 2952 2954 2955 2956 2957 2959 2960 2961 2963 2964 2965 2966 2967 2968 2969 2970 2971 2973 2974 2975 2976 2977 2978 2978 2979 2980 2981 2982 2983 2984 2985 2986 2988 2989 2990
2954 2954 2953 2952 2952 2951 2950 2950 2950 2949 2949 2948 2947 2946 2946 2945 2945 2944 2943 2943 2942 2942 2941 2941 2941 2941 2941 2942 2942 2943 2945 2946 2947 2949 2950 2951 2952 2954 2955 2957 2958 2959 2960 2962 2963 2964 2965 2967 2968 2969 2970 2971 2972 2973 2974 2975 2976 2977 2977 2978 2980 2980 2982 2983 2984 2985 2986 2987 2988
2952 2951 2951 2950 2950 2949 2949 2948 2948 2947 2947 2946 2945 2945 2944 2943 2942 2942 2941 2940 2940 2940 2939 2939 2939 2939 2939 2940 2940 2941 2942 2943 2945 2946 2947 2949 2950 2951 2953 2955 2956 2957 2959 2960 2961 2962 2964 2965 2966 2967 2968 2970 2970 2971 2972 2973 2974 2975 2976 2977 2978 2979 2980 2981 2982 2983 2984 2985 2986
2950 2950 2949 2948 2948 2947 2947 2946 2946 2945 2945 2944 2943 2943 2942 2941 2940 2940 2939 2938 2938 2937 2937 2937 2937 2937 2937 2937 2938 2939 2940 2941 2942 2944 2945 2946 2948 2949 2951 2952 2954 2955 2956 2958 2959 2960 2962 2963 2964 2965 2966 2967 2969 2970 2971 2972 2973 2974 2975 2975 2976 2978 2979 2980 2981 2982 2983 2984 2985
2948 2947 2947 2946 2945 2945 2945 2944 2944 2943 2943 2942 2942 2941 2940 2940 2939 2938 2937 2936 2936 2935 2935 2935 2935 2935 2935 2935 2936 2936 2937 2938 2940 2941 2942 2944 2945 2947 2949 2950 2952 2953 2955 2956 2957 2959 2960 2961 2962 2963 2965 2966 2967 2968 2970 2971 2972 2972 2973 2974 2975 2976 2977 2978 2980 2980 2981 2983 2984
2946 2945 2945 2944 2944 2943 2943 2942 2942 2941 2941 2940 2940 2939 2939 2938 2937 2936 2935 2935 2934 2934 2933 2933 2933 2933 2933 2933 2934 2935 2935 2936 2937 2939 2940 2942 2943 2945 2947 2949 2950 2951 2953 2955 2955 2957 2959 2960 2961 2962 2963 2964 2965 2967 2968 2969 2970 2971 2972 2973 2974 2975 2976 2977 2978 2979 2980 2981 2982
2944 2943 2943 2942 2942 2941 2941 2940 2940 2940 2939 2939 2938 2938 2937 2936 2935 2935 2934 2933 2933 2932 2932 2931 2931 2931 2931 2931 2932 2932 2933 2934 2935 2936 2938 2940 2941 2943 2945 2946 2948 2950 2951 2953 2954 2955 2957 2958 2960 2961 2962 2963 2964 2965 2966 2968 2969 2970 2971 2972 2973 2974 2975 2975 2977 2978 2979 2980 2980
2941 2941 2940 2940 2940 2940 2939 2939 2939 2938 2938 2937 2937 2936 2935 2935 2934 2933 2932 2932 2931 2931 2930 2930 2930 2930 2930 2930 2930 2931 2931 2932 2933 2935 2936 2938 2940 2942 2943 2945 2946 2948 2950 2951 2952 2954 2955 2957 2958 2960 2961 2962 2963 2964 2965 2966 2967 2968 2969 2970 2971 2972 2973 2974 2975 2976 2977 2978 2979
2940 2939 2939 2938 2938 2938 2937 2937 2937 2936 2936 2935 2935 2935 2934 2933 2932 2932 2931 2930 2930 2929 2929 2929 2928 2928 2928 2928 2929 2929 2930 2930 2932 2933 2935 2937 2938 2940 2942 2944 2945 2947 2948 2950 2951 2952 2954 2955 2956 2958 2959 2960 2961 2962 2963 2964 2965 2966 2967 2968 2969 2970 2971 2972 2973 2974 2975 2976 2977
2937 2937 2937 2937 2936 2936 2936 2935 2935 2935 2935 2934 2934 2933 2932 2932 2931 2930 2930 2929 2928 2928 2927 2927 2927 2927 2927 2927 2927 2928 2928 2929 2930 2932 2934 2935 2937 2939 2940 2942 2944 2946 2947 2948 2949 2951 2952 2954 2955 2956 2957 2959 2960 2960 2961 2962 2963 2965 2965 2967 2968 2969 2970 2970 2971 2972 2973 2974 2975
2936 2935 2935 2935 2935 2935 2934 2934 2934 2933 2933 2933 2932 2932 2931 2930 2930 2929 2928 2928 2927 2927 2926 2926 2925 2925 2925 2925 2926 2926 2927 2928 2929 2930 2932 2934 2936 2937 2939 2941 2943 2945 2946 2947 2948 2949 2951 2952 2954 2955 2956 2957 2958 2959 2960 2961 2962 2963 2964 2965 2966 2967 2968 2969 2970 2971 2971 2972 2973
2934 2934 2933 2933 2933 2933 2933 2932 2932 2932 2932 2931 2931 2930 2930 2929 2929 2928 2927 2926 2926 2925 2925 2925 2925 2924 2924 2924 2925 2925 2926 2927 2928 2930 2931 2933 2935 2936 2938 2940 2942 2944 2945 2946 2947 2948 2950 2950 2952 2953 2955 2956 2957 2958 2959 2959 2960 2961 2963 2964 2965 2965 2966 2967 2968 2969 2970 2970 2971
2932 2932 2932 2932 2931 2931 2931 2931 2931 2930 2930 2930 2929 2929 2929 2928 2927 2927 2926 2925 2925 2925 2924 2924 2923 2923 2923 2923 2924 2924 2925 2926 2927 2929 2930 2932 2933 2935 2937 2939 2941 2942 2943 2945 2946 2948 2949 2950 2951 2952 2953 2955 2956 2957 2957 2958 2959 2960 2961 2963 2964 2965 2965 2966 2967 2968 2968 2969 2970
2930 2930 2930 2930 2930 2930 2930 2929 2929 2929 2929 2928 2928 2928 2927 2927 2926 2925 2925 2925 2924 2924 2923 2923 2922 2922 2922 2923 2923 2924 2924 2925 2926 2928 2929 2931 2932 2934 2935 2937 2939 2940 2942 2943 2945 2947 2948 2949 2950 2950 2952 2953 2954 2955 2955 2956 2957 2958 2960 2961 2962 2963 2964 2965 2965 2966 2967 2968 2969
2929 2929 2929 2928 2928 2928 2928 2928 2928 2927 2927 2927 2927 2926 2926 2926 2925 2925 2924 2924 2923 2923 2922 2922 2922 2922 2922 2922 2922 2923 2924 2924 2925 2927 2928 2930 2931 2933 2934 2935 2937 2939 2940 2942 2944 2945 2946 2947 2948 2949 2950 2951 2952 2953 2954 2955 2955 2957 2958 2960 2960 2962 2963 2964 2964 2965 2965 2967 2968
2928 2927 2927 2927 2927 2926 2926 2926 2926 2926 2926 2926 2925 2925 2925 2925 2924 2924 2923 2923 2922 2922 2921 2921 2921 2921 2921 2921 2922 2922 2923 2924 2925 2926 2927 2929 2930 2932 2933 2934 2935 2937 2939 2940 2942 2943 2944 2945 2946 2947 2948 2949 2950 2951 2952 2953 2954 2955 2957 2958 2959 2960 2961 2962 2962 2963 2964 2965 2966
2926 2925 2925 2925 2925 2925 2925 2925 2925 2925 2925 2924 2924 2924 2924 2923 2923 2923 2922 2922 2921 2921 2921 2920 2920 2920 2920 2921 2921 2922 2922 2923 2924 2925 2926 2928 2930 2931 2932 2933 2934 2935 2937 2939 2940 2941 2943 2944 2945 2946 2947 2948 2949 2950 2950 2951 2952 2954 2955 2956 2957 2958 2959 2960 2961 2961 2962 2964 2964
2924 2924 2924 2924 2924 2923 2923 2923 2923 2923 2923 2923 2923 2923 2922 2922 2922 2922 2921 2921 2920 2920 2920 2920 2920 2920 2920 2920 2921 2921 2922 2923 2924 2925 2926 2927 2928 2930 2930 2931 2933 2934 2935 2937 2938 2940 2941 2942 2943 2944 2945 2946 2947 2948 2949 2950 2951 2952 2953 2954 2955 2956 2958 2959 2959 2960 2961 2962 2963
2923 2922 2922 2922 2922 2922 2922 2922 2922 2922 2922 2922 2921 2921 2921 2921 2921 2920 2920 2920 2920 2920 2919 2919 2919 2919 2920 2920 2920 2921 2921 2922 2923 2924 2925 2926 2927 2928 2929 2930 2931 2933 2934 2935 2937 2939 2940 2941 2942 2943 2944 2945 2945 2946 2947 2948 2949 2950 2951 2953 2954 2955 2956 2957 2958 2959 2960 2960 2961
2921 2920 2920 2920 2920 2920 2920 2920 2920 2920 2920 2920 2920 2920 2920 2920 2920 2920 2920 2919 2919 2919 2919 2919 2919 2919 2919 2919 2920 2920 2921 2921 2922 2923 2924 2925 2926 2927 2928 2929 2930 2932 2933 2934 2936 2937 2939 2940 2940 2941 2942 2943 2944 2945 2946 2947 2948 2949 2950 2951 2952 2953 2954 2955 2956 2957 2958 2959 2960
2919 2919 2919 2919 2919 2919 2919 2919 2919 2919 2919 2919 2919 2919 2919 2919 2919 2919 2919 2918 2918 2918 2918 2918 2918 2918 2919 2919 2919 2920 2920 2921 2922 2922 2923 2924 2925 2926 2927 2928 2930 2931 2932 2934 2935 2936 2937 2939 2939 2940 2941 2942 2943 2944 2945 2945 2947 2948 2949 2950 2951 2952 2952 2953 2954 2955 2956 2957 2958